,,,PA_Meas_PMT16A,,PR_Meas_QMR101_102,,RH_Meas_QMH101,,SR_Meas_QMS101,,TA_Meas_QMH101,,GenWind,,GenWind,
date,time,status,PA,status,PR,status,RH,status,SR,status,TA,status,DirAvg,status,SpdAvg,
2010-03-22, 00:00:04,VALID,1003.13,VALID,0,VALID,92.6222,VALID,0,VALID,25.2007,VALID,295,VALID,0.286328,
2010-03-22, 00:01:04,VALID,1003.1,VALID,0,VALID,92.7596,VALID,0,VALID,25.224,VALID,350,VALID,0.384375,
2010-03-22, 00:02:04,VALID,1003.09,VALID,0,VALID,92.9426,VALID,0,VALID,25.1618,VALID,350,VALID,0.511719,
2010-03-22, 00:03:04,VALID,1003.09,VALID,0,VALID,93.0189,VALID,0,VALID,25.1637,VALID,350,VALID,0.45,
2010-03-22, 00:04:04,VALID,1003.08,VALID,0,VALID,93.0647,VALID,0,VALID,25.1248,VALID,350,VALID,0.330859,
2010-03-22, 00:05:04,VALID,1003.09,VALID,0,VALID,93.1181,VALID,0,VALID,25.1053,VALID,350,VALID,0.188672,
2010-03-22, 00:06:04,VALID,1003.09,VALID,0,VALID,93.1715,VALID,0,VALID,25.0858,VALID,350,VALID,0.205469,
2010-03-22, 00:07:04,VALID,1003.12,VALID,0,VALID,93.2554,VALID,0,VALID,25.0858,VALID,350,VALID,0.0984375,
2010-03-22, 00:08:04,VALID,1003.12,VALID,0,VALID,93.3394,VALID,0,VALID,25.0644,VALID,350,VALID,0.104297,
2010-03-22, 00:09:04,VALID,1003.15,VALID,0,VALID,93.3928,VALID,0,VALID,25.0858,VALID,350,VALID,0.111719,
2010-03-22, 00:10:04,VALID,1003.11,VALID,0,VALID,93.4538,VALID,0,VALID,25.0858,VALID,350,VALID,0,
2010-03-22, 00:11:04,VALID,1003.12,VALID,0,VALID,93.5224,VALID,0,VALID,25.1072,VALID,350,VALID,0.0417969,
2010-03-22, 00:12:04,VALID,1003.1,VALID,0,VALID,93.5758,VALID,0,VALID,25.0858,VALID,350,VALID,0.23125,
2010-03-22, 00:13:04,VALID,1003.09,VALID,0,VALID,93.6216,VALID,0,VALID,25.0858,VALID,350,VALID,0.232422,
2010-03-22, 00:14:04,VALID,1003.04,VALID,0,VALID,93.6369,VALID,0,VALID,25.1053,VALID,350,VALID,0.365625,
2010-03-22, 00:15:04,VALID,1003,VALID,0,VALID,93.5987,VALID,0,VALID,25.0858,VALID,341,VALID,0.305859,
2010-03-22, 00:16:04,VALID,1002.98,VALID,0,VALID,93.5911,VALID,0,VALID,25.0663,VALID,328,VALID,0.0566406,
2010-03-22, 00:17:04,VALID,1002.98,VALID,0,VALID,93.5453,VALID,0,VALID,25.0663,VALID,280,VALID,0.569141,
2010-03-22, 00:18:04,VALID,1002.98,VALID,0,VALID,93.4919,VALID,0,VALID,25.0663,VALID,281,VALID,0.0832031,
2010-03-22, 00:19:04,VALID,1002.96,VALID,0,VALID,93.4767,VALID,0,VALID,25.0644,VALID,293,VALID,0.642578,
2010-03-22, 00:20:04,VALID,1002.96,VALID,0,VALID,93.3851,VALID,0,VALID,25.0858,VALID,284,VALID,0.895703,
2010-03-22, 00:21:04,VALID,1002.96,VALID,0,VALID,93.2707,VALID,0,VALID,25.1053,VALID,299,VALID,0.946875,
2010-03-22, 00:22:04,VALID,1002.94,VALID,0,VALID,93.0952,VALID,0,VALID,25.1053,VALID,302,VALID,0.500391,
2010-03-22, 00:23:04,VALID,1002.93,VALID,0,VALID,92.9655,VALID,0,VALID,25.1034,VALID,281,VALID,0.651563,
2010-03-22, 00:24:04,VALID,1002.94,VALID,0,VALID,92.8664,VALID,0,VALID,25.1442,VALID,297,VALID,0.689062,
2010-03-22, 00:25:04,VALID,1002.9,VALID,0,VALID,92.729,VALID,0,VALID,25.1248,VALID,289,VALID,0.330469,
2010-03-22, 00:26:04,VALID,1002.88,VALID,0,VALID,92.5993,VALID,0,VALID,25.1637,VALID,345,VALID,0.676172,
2010-03-22, 00:27:04,VALID,1002.86,VALID,0,VALID,92.4239,VALID,0,VALID,25.1442,VALID,300,VALID,0.0492188,
2010-03-22, 00:28:04,VALID,1002.84,VALID,0,VALID,92.401,VALID,0,VALID,25.1618,VALID,329,VALID,0.449219,
2010-03-22, 00:29:04,VALID,1002.83,VALID,0,VALID,92.3934,VALID,0,VALID,25.1637,VALID,343,VALID,0.61875,
2010-03-22, 00:30:04,VALID,1002.84,VALID,0,VALID,92.3552,VALID,0,VALID,25.1637,VALID,351,VALID,0.900781,
2010-03-22, 00:31:04,VALID,1002.83,VALID,0,VALID,92.3781,VALID,0,VALID,25.1423,VALID,354,VALID,0.839453,
2010-03-22, 00:32:04,VALID,1002.8,VALID,0,VALID,92.3323,VALID,0,VALID,25.1248,VALID,2,VALID,0.778125,
2010-03-22, 00:33:04,VALID,1002.76,VALID,0,VALID,92.3934,VALID,0,VALID,25.1034,VALID,348,VALID,0.734375,
2010-03-22, 00:34:04,VALID,1002.74,VALID,0,VALID,92.4086,VALID,0,VALID,25.1034,VALID,353,VALID,0.560547,
2010-03-22, 00:35:04,VALID,1002.7,VALID,0,VALID,92.4697,VALID,0,VALID,25.1248,VALID,353,VALID,0.6,
2010-03-22, 00:36:04,VALID,1002.69,VALID,0,VALID,92.5612,VALID,0,VALID,25.1248,VALID,354,VALID,0.526172,
2010-03-22, 00:37:04,VALID,1002.65,VALID,0,VALID,92.668,VALID,0,VALID,25.1053,VALID,354,VALID,0.578516,
2010-03-22, 00:38:04,VALID,1002.61,VALID,0,VALID,92.7519,VALID,0,VALID,25.0644,VALID,354,VALID,0.529688,
2010-03-22, 00:39:04,VALID,1002.58,VALID,0,VALID,92.813,VALID,0,VALID,25.0858,VALID,354,VALID,0.5375,
2010-03-22, 00:40:04,VALID,1002.55,VALID,0,VALID,92.7977,VALID,0,VALID,25.0877,VALID,358,VALID,0.591016,
2010-03-22, 00:41:04,VALID,1002.55,VALID,0,VALID,92.813,VALID,0,VALID,25.0682,VALID,356,VALID,0.483203,
2010-03-22, 00:42:04,VALID,1002.55,VALID,0,VALID,92.8053,VALID,0,VALID,25.0469,VALID,343,VALID,0.640625,
2010-03-22, 00:43:04,VALID,1002.5,VALID,0,VALID,92.8282,VALID,0,VALID,25.045,VALID,334,VALID,0.8375,
2010-03-22, 00:44:04,VALID,1002.52,VALID,0,VALID,92.7672,VALID,0,VALID,25.0274,VALID,345,VALID,1.0332,
2010-03-22, 00:45:04,VALID,1002.51,VALID,0,VALID,92.6909,VALID,0,VALID,25.045,VALID,275,VALID,0.565625,
2010-03-22, 00:46:04,VALID,1002.5,VALID,0,VALID,92.6451,VALID,0,VALID,25.0858,VALID,352,VALID,0.433594,
2010-03-22, 00:47:04,VALID,1002.51,VALID,0,VALID,92.5688,VALID,0,VALID,25.0839,VALID,350,VALID,0.603906,
2010-03-22, 00:48:04,VALID,1002.52,VALID,0,VALID,92.4697,VALID,0,VALID,25.0839,VALID,351,VALID,0.705859,
2010-03-22, 00:49:04,VALID,1002.51,VALID,0,VALID,92.4468,VALID,0,VALID,25.1053,VALID,351,VALID,0.440234,
2010-03-22, 00:50:04,VALID,1002.49,VALID,0,VALID,92.4468,VALID,0,VALID,25.0839,VALID,360,VALID,0.567578,
2010-03-22, 00:51:04,VALID,1002.49,VALID,0,VALID,92.3323,VALID,0,VALID,25.1248,VALID,351,VALID,0.807422,
2010-03-22, 00:52:04,VALID,1002.47,VALID,0,VALID,92.3629,VALID,0,VALID,25.1034,VALID,1,VALID,0.883203,
2010-03-22, 00:53:04,VALID,1002.47,VALID,0,VALID,92.2789,VALID,0,VALID,25.0839,VALID,1,VALID,0.789453,
2010-03-22, 00:54:04,VALID,1002.49,VALID,0,VALID,92.1035,VALID,0,VALID,25.1461,VALID,348,VALID,1.26992,
2010-03-22, 00:55:04,VALID,1002.47,VALID,0,VALID,91.928,VALID,0,VALID,25.1637,VALID,351,VALID,0.869922,
2010-03-22, 00:56:04,VALID,1002.48,VALID,0,VALID,91.867,VALID,0,VALID,25.1832,VALID,327,VALID,0.376563,
2010-03-22, 00:57:04,VALID,1002.49,VALID,0,VALID,91.8136,VALID,0,VALID,25.1813,VALID,344,VALID,0.879297,
2010-03-22, 00:58:04,VALID,1002.48,VALID,0,VALID,91.7754,VALID,0,VALID,25.2027,VALID,347,VALID,0.273047,
2010-03-22, 00:59:04,VALID,1002.47,VALID,0,VALID,91.8822,VALID,0,VALID,25.2416,VALID,305,VALID,0.417969,
2010-03-22, 01:00:04,VALID,1002.46,VALID,0,VALID,91.8212,VALID,0,VALID,25.2221,VALID,306,VALID,0.0480469,
2010-03-22, 01:01:04,VALID,1002.49,VALID,0,VALID,91.7907,VALID,0,VALID,25.2416,VALID,332,VALID,0.378906,
2010-03-22, 01:02:04,VALID,1002.51,VALID,0,VALID,91.867,VALID,0,VALID,25.2416,VALID,283,VALID,0.346875,
2010-03-22, 01:03:04,VALID,1002.5,VALID,0,VALID,91.9814,VALID,0,VALID,25.2397,VALID,283,VALID,0.148438,
2010-03-22, 01:04:04,VALID,1002.5,VALID,0,VALID,91.8899,VALID,0,VALID,25.2416,VALID,283,VALID,0.920703,
2010-03-22, 01:05:04,VALID,1002.52,VALID,0,VALID,91.8517,VALID,0,VALID,25.2416,VALID,275,VALID,0.468359,
2010-03-22, 01:06:04,VALID,1002.52,VALID,0,VALID,91.9967,VALID,0,VALID,25.2611,VALID,293,VALID,0.437891,
2010-03-22, 01:07:04,VALID,1002.5,VALID,0,VALID,91.8975,VALID,0,VALID,25.2416,VALID,262,VALID,0.364844,
2010-03-22, 01:08:04,VALID,1002.53,VALID,0,VALID,91.8441,VALID,0,VALID,25.2611,VALID,308,VALID,0.865625,
2010-03-22, 01:09:04,VALID,1002.54,VALID,0,VALID,91.6229,VALID,0,VALID,25.2611,VALID,291,VALID,1.24844,
2010-03-22, 01:10:04,VALID,1002.51,VALID,0,VALID,91.4703,VALID,0,VALID,25.263,VALID,293,VALID,1.07227,
2010-03-22, 01:11:04,VALID,1002.52,VALID,0,VALID,91.4779,VALID,0,VALID,25.2611,VALID,294,VALID,0.961719,
2010-03-22, 01:12:04,VALID,1002.5,VALID,0,VALID,91.5237,VALID,0,VALID,25.263,VALID,284,VALID,1.0082,
2010-03-22, 01:13:04,VALID,1002.5,VALID,0,VALID,91.5161,VALID,0,VALID,25.2611,VALID,299,VALID,1.12031,
2010-03-22, 01:14:04,VALID,1002.52,VALID,0,VALID,91.5466,VALID,0,VALID,25.2611,VALID,296,VALID,0.839453,
2010-03-22, 01:15:04,VALID,1002.49,VALID,0,VALID,91.6686,VALID,0,VALID,25.2611,VALID,268,VALID,0.684766,
2010-03-22, 01:16:04,VALID,1002.51,VALID,0,VALID,91.7754,VALID,0,VALID,25.2416,VALID,298,VALID,0.772656,
2010-03-22, 01:17:04,VALID,1002.47,VALID,0,VALID,91.8212,VALID,0,VALID,25.2416,VALID,305,VALID,0.932813,
2010-03-22, 01:18:04,VALID,1002.48,VALID,0,VALID,91.8899,VALID,0,VALID,25.2221,VALID,302,VALID,0.359375,
2010-03-22, 01:19:04,VALID,1002.5,VALID,0,VALID,91.9967,VALID,0,VALID,25.2221,VALID,339,VALID,0.650781,
2010-03-22, 01:20:04,VALID,1002.51,VALID,0,VALID,92.0501,VALID,0,VALID,25.2435,VALID,317,VALID,0.0738281,
2010-03-22, 01:21:04,VALID,1002.52,VALID,0,VALID,92.0348,VALID,0,VALID,25.2027,VALID,352,VALID,0.841016,
2010-03-22, 01:22:04,VALID,1002.52,VALID,0,VALID,92.1035,VALID,0,VALID,25.1618,VALID,355,VALID,0.247656,
2010-03-22, 01:23:04,VALID,1002.54,VALID,0,VALID,92.2179,VALID,0,VALID,25.1832,VALID,357,VALID,0.671484,
2010-03-22, 01:24:04,VALID,1002.56,VALID,0,VALID,92.2637,VALID,0,VALID,25.1637,VALID,358,VALID,0.511719,
2010-03-22, 01:25:04,VALID,1002.59,VALID,0,VALID,92.3171,VALID,0,VALID,25.1656,VALID,356,VALID,0.0925781,
2010-03-22, 01:26:04,VALID,1002.57,VALID,0,VALID,92.462,VALID,0,VALID,25.1442,VALID,356,VALID,0.254687,
2010-03-22, 01:27:04,VALID,1002.58,VALID,0,VALID,92.4849,VALID,0,VALID,25.1248,VALID,355,VALID,0.589453,
2010-03-22, 01:28:04,VALID,1002.56,VALID,0,VALID,92.5154,VALID,0,VALID,25.1053,VALID,355,VALID,0.730859,
2010-03-22, 01:29:04,VALID,1002.57,VALID,0,VALID,92.5612,VALID,0,VALID,25.0858,VALID,348,VALID,0.91875,
2010-03-22, 01:30:04,VALID,1002.59,VALID,0,VALID,92.5993,VALID,0,VALID,25.0663,VALID,359,VALID,0.741406,
2010-03-22, 01:31:04,VALID,1002.58,VALID,0,VALID,92.7367,VALID,0,VALID,25.0663,VALID,1,VALID,0.382813,
2010-03-22, 01:32:04,VALID,1002.58,VALID,0,VALID,92.7672,VALID,0,VALID,25.0469,VALID,355,VALID,0.350781,
2010-03-22, 01:33:04,VALID,1002.59,VALID,0,VALID,92.8511,VALID,0,VALID,25.0469,VALID,355,VALID,0,
2010-03-22, 01:34:04,VALID,1002.58,VALID,0,VALID,92.9045,VALID,0,VALID,25.0079,VALID,355,VALID,0.29375,
2010-03-22, 01:35:04,VALID,1002.61,VALID,0,VALID,92.9732,VALID,0,VALID,25.0488,VALID,263,VALID,0.192578,
2010-03-22, 01:36:04,VALID,1002.6,VALID,0,VALID,93.0113,VALID,0,VALID,25.0274,VALID,273,VALID,0.555078,
2010-03-22, 01:37:04,VALID,1002.57,VALID,0,VALID,93.0418,VALID,0,VALID,25.0469,VALID,286,VALID,0.601953,
2010-03-22, 01:38:04,VALID,1002.61,VALID,0,VALID,93.0876,VALID,0,VALID,25.0469,VALID,286,VALID,0.133203,
2010-03-22, 01:39:04,VALID,1002.62,VALID,0,VALID,93.0876,VALID,0,VALID,25.0663,VALID,286,VALID,0.0820313,
2010-03-22, 01:40:04,VALID,1002.59,VALID,0,VALID,93.0571,VALID,0,VALID,25.0255,VALID,286,VALID,0.0777344,
2010-03-22, 01:41:04,VALID,1002.57,VALID,0,VALID,93.0342,VALID,0,VALID,25.0469,VALID,286,VALID,0.0800781,
2010-03-22, 01:42:04,VALID,1002.59,VALID,0,VALID,93.0723,VALID,0,VALID,25.0469,VALID,287,VALID,0.328906,
2010-03-22, 01:43:04,VALID,1002.59,VALID,0,VALID,93.0266,VALID,0,VALID,25.0469,VALID,289,VALID,0.685547,
2010-03-22, 01:44:04,VALID,1002.6,VALID,0,VALID,92.9808,VALID,0,VALID,25.0469,VALID,298,VALID,0.526563,
2010-03-22, 01:45:04,VALID,1002.6,VALID,0,VALID,92.9579,VALID,0,VALID,25.0274,VALID,299,VALID,0.575781,
2010-03-22, 01:46:04,VALID,1002.57,VALID,0,VALID,92.9655,VALID,0,VALID,25.0663,VALID,301,VALID,0.251563,
2010-03-22, 01:47:04,VALID,1002.56,VALID,0,VALID,93.0113,VALID,0,VALID,25.0469,VALID,297,VALID,0.403125,
2010-03-22, 01:48:04,VALID,1002.55,VALID,0,VALID,93.0571,VALID,0,VALID,25.0877,VALID,296,VALID,0.0410156,
2010-03-22, 01:49:04,VALID,1002.51,VALID,0,VALID,93.0495,VALID,0,VALID,25.0663,VALID,340,VALID,0.249219,
2010-03-22, 01:50:04,VALID,1002.5,VALID,0,VALID,93.0723,VALID,0,VALID,25.0682,VALID,340,VALID,0.263672,
2010-03-22, 01:51:04,VALID,1002.48,VALID,0,VALID,93.08,VALID,0,VALID,25.0469,VALID,340,VALID,0.242578,
2010-03-22, 01:52:04,VALID,1002.41,VALID,0,VALID,93.1029,VALID,0,VALID,25.0469,VALID,340,VALID,0.209766,
2010-03-22, 01:53:04,VALID,1002.41,VALID,0,VALID,93.0876,VALID,0,VALID,25.0469,VALID,340,VALID,0.0015625,
2010-03-22, 01:54:04,VALID,1002.39,VALID,0,VALID,93.1181,VALID,0,VALID,25.0255,VALID,340,VALID,0,
2010-03-22, 01:55:04,VALID,1002.36,VALID,0,VALID,93.141,VALID,0,VALID,25.0469,VALID,340,VALID,0.0648438,
2010-03-22, 01:56:04,VALID,1002.34,VALID,0,VALID,93.1715,VALID,0,VALID,25.0274,VALID,340,VALID,0,
2010-03-22, 01:57:04,VALID,1002.31,VALID,0,VALID,93.2402,VALID,0,VALID,25.0255,VALID,340,VALID,0.0378906,
2010-03-22, 01:58:04,VALID,1002.33,VALID,0,VALID,93.2859,VALID,0,VALID,25.0274,VALID,340,VALID,0.121875,
2010-03-22, 01:59:04,VALID,1002.28,VALID,0,VALID,93.3394,VALID,0,VALID,25.0274,VALID,340,VALID,0,
2010-03-22, 02:00:04,VALID,1002.28,VALID,0,VALID,93.347,VALID,0,VALID,24.9885,VALID,340,VALID,0,
2010-03-22, 02:01:04,VALID,1002.28,VALID,0,VALID,93.3546,VALID,0,VALID,24.969,VALID,340,VALID,0,
2010-03-22, 02:02:04,VALID,1002.25,VALID,0,VALID,93.4462,VALID,0,VALID,24.969,VALID,340,VALID,0,
2010-03-22, 02:03:04,VALID,1002.21,VALID,0,VALID,93.5072,VALID,0,VALID,24.9885,VALID,340,VALID,0.175781,
2010-03-22, 02:04:04,VALID,1002.21,VALID,0,VALID,93.553,VALID,0,VALID,24.969,VALID,340,VALID,0.171484,
2010-03-22, 02:05:04,VALID,1002.18,VALID,0,VALID,93.5911,VALID,0,VALID,24.9495,VALID,340,VALID,0.0316406,
2010-03-22, 02:06:04,VALID,1002.21,VALID,0,VALID,93.6445,VALID,0,VALID,24.9514,VALID,340,VALID,0.317187,
2010-03-22, 02:07:04,VALID,1002.2,VALID,0,VALID,93.7361,VALID,0,VALID,24.93,VALID,340,VALID,0.349219,
2010-03-22, 02:08:04,VALID,1002.18,VALID,0,VALID,93.8276,VALID,0,VALID,24.9514,VALID,340,VALID,0.391016,
2010-03-22, 02:09:04,VALID,1002.2,VALID,0,VALID,93.8886,VALID,0,VALID,24.9125,VALID,340,VALID,0.312109,
2010-03-22, 02:10:04,VALID,1002.17,VALID,0,VALID,93.9344,VALID,0,VALID,24.8716,VALID,340,VALID,0.203906,
2010-03-22, 02:11:04,VALID,1002.18,VALID,0,VALID,93.9725,VALID,0,VALID,24.854,VALID,340,VALID,0.241797,
2010-03-22, 02:12:04,VALID,1002.14,VALID,0,VALID,93.9878,VALID,0,VALID,24.8132,VALID,340,VALID,0.180859,
2010-03-22, 02:13:04,VALID,1002.17,VALID,0,VALID,94.0488,VALID,0,VALID,24.7919,VALID,340,VALID,0.136328,
2010-03-22, 02:14:04,VALID,1002.16,VALID,0,VALID,94.1099,VALID,0,VALID,24.8346,VALID,340,VALID,0,
2010-03-22, 02:15:04,VALID,1002.15,VALID,0,VALID,94.1709,VALID,0,VALID,24.7937,VALID,340,VALID,0,
2010-03-22, 02:16:04,VALID,1002.12,VALID,0,VALID,94.2167,VALID,0,VALID,24.7937,VALID,340,VALID,0,
2010-03-22, 02:17:04,VALID,1002.12,VALID,0,VALID,94.2548,VALID,0,VALID,24.7548,VALID,340,VALID,0,
2010-03-22, 02:18:04,VALID,1002.1,VALID,0,VALID,94.3235,VALID,0,VALID,24.7956,VALID,340,VALID,0,
2010-03-22, 02:19:04,VALID,1002.1,VALID,0,VALID,94.3387,VALID,0,VALID,24.7353,VALID,340,VALID,0,
2010-03-22, 02:20:04,VALID,1002.11,VALID,0,VALID,94.3616,VALID,0,VALID,24.7353,VALID,340,VALID,0,
2010-03-22, 02:21:04,VALID,1002.08,VALID,0,VALID,94.3998,VALID,0,VALID,24.6964,VALID,340,VALID,0,
2010-03-22, 02:22:04,VALID,1002.07,VALID,0,VALID,94.415,VALID,0,VALID,24.6964,VALID,340,VALID,0,
2010-03-22, 02:23:04,VALID,1002.08,VALID,0,VALID,94.4532,VALID,0,VALID,24.7159,VALID,340,VALID,0,
2010-03-22, 02:24:04,VALID,1002.07,VALID,0,VALID,94.5066,VALID,0,VALID,24.7372,VALID,340,VALID,0,
2010-03-22, 02:25:04,VALID,1002.08,VALID,0,VALID,94.5523,VALID,0,VALID,24.7372,VALID,340,VALID,0,
2010-03-22, 02:26:04,VALID,1002.01,VALID,0,VALID,94.5981,VALID,0,VALID,24.7159,VALID,340,VALID,0,
2010-03-22, 02:27:04,VALID,1002.01,VALID,0,VALID,94.6363,VALID,0,VALID,24.7372,VALID,340,VALID,0,
2010-03-22, 02:28:04,VALID,1002,VALID,0,VALID,94.6668,VALID,0,VALID,24.7159,VALID,340,VALID,0.302344,
2010-03-22, 02:29:04,VALID,1002,VALID,0,VALID,94.7278,VALID,0,VALID,24.7177,VALID,340,VALID,0.1875,
2010-03-22, 02:30:04,VALID,1002.01,VALID,0,VALID,94.6973,VALID,0,VALID,24.6769,VALID,340,VALID,0.144531,
2010-03-22, 02:31:04,VALID,1001.98,VALID,0,VALID,94.7125,VALID,0,VALID,24.6574,VALID,340,VALID,0.00703125,
2010-03-22, 02:32:04,VALID,1001.99,VALID,0,VALID,94.7278,VALID,0,VALID,24.638,VALID,340,VALID,0.168359,
2010-03-22, 02:33:04,VALID,1001.99,VALID,0,VALID,94.7507,VALID,0,VALID,24.638,VALID,340,VALID,0.302344,
2010-03-22, 02:34:04,VALID,1002.02,VALID,0,VALID,94.766,VALID,0,VALID,24.6185,VALID,340,VALID,0,
2010-03-22, 02:35:04,VALID,1001.99,VALID,0,VALID,94.7812,VALID,0,VALID,24.6185,VALID,340,VALID,0,
2010-03-22, 02:36:04,VALID,1002.05,VALID,0,VALID,94.7965,VALID,0,VALID,24.599,VALID,340,VALID,0,
2010-03-22, 02:37:04,VALID,1002.05,VALID,0,VALID,94.8194,VALID,0,VALID,24.599,VALID,340,VALID,0,
2010-03-22, 02:38:04,VALID,1002.08,VALID,0,VALID,94.8499,VALID,0,VALID,24.599,VALID,340,VALID,0.418359,
2010-03-22, 02:39:04,VALID,1002.08,VALID,0,VALID,94.8728,VALID,0,VALID,24.638,VALID,340,VALID,0.376953,
2010-03-22, 02:40:04,VALID,1002.03,VALID,0,VALID,94.8956,VALID,0,VALID,24.638,VALID,340,VALID,0,
2010-03-22, 02:41:04,VALID,1002.06,VALID,0,VALID,94.9185,VALID,0,VALID,24.638,VALID,340,VALID,0,
2010-03-22, 02:42:04,VALID,1002.07,VALID,0,VALID,94.9567,VALID,0,VALID,24.638,VALID,340,VALID,0,
2010-03-22, 02:43:04,VALID,1002.08,VALID,0,VALID,94.949,VALID,0,VALID,24.638,VALID,340,VALID,0,
2010-03-22, 02:44:04,VALID,1002.1,VALID,0,VALID,94.9719,VALID,0,VALID,24.6398,VALID,340,VALID,0,
2010-03-22, 02:45:04,VALID,1002.09,VALID,0,VALID,94.9643,VALID,0,VALID,24.6185,VALID,340,VALID,0,
2010-03-22, 02:46:04,VALID,1002.08,VALID,0,VALID,94.9872,VALID,0,VALID,24.638,VALID,340,VALID,0,
2010-03-22, 02:47:04,VALID,1002.04,VALID,0,VALID,95.0101,VALID,0,VALID,24.6574,VALID,340,VALID,0,
2010-03-22, 02:48:04,VALID,1002.03,VALID,0,VALID,95.0253,VALID,0,VALID,24.6574,VALID,340,VALID,0,
2010-03-22, 02:49:04,VALID,1002.06,VALID,0,VALID,95.0253,VALID,0,VALID,24.6788,VALID,340,VALID,0,
2010-03-22, 02:50:04,VALID,1002.05,VALID,0,VALID,95.0406,VALID,0,VALID,24.6361,VALID,340,VALID,0,
2010-03-22, 02:51:04,VALID,1002.01,VALID,0,VALID,95.0635,VALID,0,VALID,24.6574,VALID,340,VALID,0,
2010-03-22, 02:52:04,VALID,1002.04,VALID,0,VALID,95.094,VALID,0,VALID,24.6769,VALID,340,VALID,0.255469,
2010-03-22, 02:53:04,VALID,1002.02,VALID,0,VALID,95.094,VALID,0,VALID,24.638,VALID,340,VALID,0.519531,
2010-03-22, 02:54:04,VALID,1002,VALID,0,VALID,95.1016,VALID,0,VALID,24.6185,VALID,340,VALID,0.373437,
2010-03-22, 02:55:04,VALID,1002,VALID,0,VALID,95.1016,VALID,0,VALID,24.599,VALID,341,VALID,0.677344,
2010-03-22, 02:56:04,VALID,1001.99,VALID,0,VALID,95.1016,VALID,0,VALID,24.5388,VALID,348,VALID,0.556641,
2010-03-22, 02:57:04,VALID,1001.99,VALID,0,VALID,95.1093,VALID,0,VALID,24.5406,VALID,348,VALID,0.273047,
2010-03-22, 02:58:04,VALID,1001.97,VALID,0,VALID,95.1016,VALID,0,VALID,24.5406,VALID,348,VALID,0.205469,
2010-03-22, 02:59:04,VALID,1001.95,VALID,0,VALID,95.1169,VALID,0,VALID,24.5406,VALID,348,VALID,0.202344,
2010-03-22, 03:00:04,VALID,1001.97,VALID,0,VALID,95.1245,VALID,0,VALID,24.5212,VALID,348,VALID,0.259375,
2010-03-22, 03:01:04,VALID,1001.93,VALID,0,VALID,95.1016,VALID,0,VALID,24.5406,VALID,348,VALID,0.4625,
2010-03-22, 03:02:04,VALID,1001.93,VALID,0,VALID,95.1474,VALID,0,VALID,24.5193,VALID,346,VALID,0.451562,
2010-03-22, 03:03:04,VALID,1001.93,VALID,0,VALID,95.1398,VALID,0,VALID,24.5406,VALID,357,VALID,0.485547,
2010-03-22, 03:04:04,VALID,1001.89,VALID,0,VALID,95.1398,VALID,0,VALID,24.5212,VALID,357,VALID,0.492578,
2010-03-22, 03:05:04,VALID,1001.9,VALID,0,VALID,95.1703,VALID,0,VALID,24.5193,VALID,357,VALID,0.375391,
2010-03-22, 03:06:04,VALID,1001.9,VALID,0,VALID,95.1779,VALID,0,VALID,24.5601,VALID,357,VALID,0.266016,
2010-03-22, 03:07:04,VALID,1001.91,VALID,0,VALID,95.1855,VALID,0,VALID,24.5406,VALID,357,VALID,0.499219,
2010-03-22, 03:08:04,VALID,1001.88,VALID,0,VALID,95.1855,VALID,0,VALID,24.5601,VALID,357,VALID,0.228906,
2010-03-22, 03:09:04,VALID,1001.88,VALID,0,VALID,95.1779,VALID,0,VALID,24.5193,VALID,357,VALID,0.334375,
2010-03-22, 03:10:04,VALID,1001.82,VALID,0,VALID,95.1855,VALID,0,VALID,24.5601,VALID,357,VALID,0.275,
2010-03-22, 03:11:04,VALID,1001.84,VALID,0,VALID,95.1932,VALID,0,VALID,24.562,VALID,357,VALID,0.373828,
2010-03-22, 03:12:04,VALID,1001.82,VALID,0,VALID,95.1703,VALID,0,VALID,24.5212,VALID,357,VALID,0.0578125,
2010-03-22, 03:13:04,VALID,1001.81,VALID,0,VALID,95.1779,VALID,0,VALID,24.5193,VALID,357,VALID,0.158984,
2010-03-22, 03:14:04,VALID,1001.81,VALID,0,VALID,95.1779,VALID,0,VALID,24.5406,VALID,357,VALID,0.258984,
2010-03-22, 03:15:04,VALID,1001.82,VALID,0,VALID,95.1703,VALID,0,VALID,24.5406,VALID,357,VALID,0.2125,
2010-03-22, 03:16:04,VALID,1001.78,VALID,0,VALID,95.1779,VALID,0,VALID,24.5406,VALID,357,VALID,0.267969,
2010-03-22, 03:17:04,VALID,1001.81,VALID,0,VALID,95.1703,VALID,0,VALID,24.5212,VALID,357,VALID,0.364844,
2010-03-22, 03:18:04,VALID,1001.8,VALID,0,VALID,95.1703,VALID,0,VALID,24.5193,VALID,357,VALID,0.277734,
2010-03-22, 03:19:04,VALID,1001.79,VALID,0,VALID,95.1703,VALID,0,VALID,24.5193,VALID,357,VALID,0.137109,
2010-03-22, 03:20:04,VALID,1001.76,VALID,0,VALID,95.1779,VALID,0,VALID,24.5406,VALID,357,VALID,0,
2010-03-22, 03:21:04,VALID,1001.74,VALID,0,VALID,95.1932,VALID,0,VALID,24.5406,VALID,357,VALID,0,
2010-03-22, 03:22:04,VALID,1001.75,VALID,0,VALID,95.1779,VALID,0,VALID,24.5193,VALID,357,VALID,0,
2010-03-22, 03:23:04,VALID,1001.73,VALID,0,VALID,95.1703,VALID,0,VALID,24.4998,VALID,357,VALID,0,
2010-03-22, 03:24:04,VALID,1001.72,VALID,0,VALID,95.1474,VALID,0,VALID,24.4998,VALID,357,VALID,0,
2010-03-22, 03:25:04,VALID,1001.73,VALID,0,VALID,95.1779,VALID,0,VALID,24.5212,VALID,357,VALID,0,
2010-03-22, 03:26:04,VALID,1001.73,VALID,0,VALID,95.1627,VALID,0,VALID,24.5212,VALID,357,VALID,0,
2010-03-22, 03:27:04,VALID,1001.7,VALID,0,VALID,95.1855,VALID,0,VALID,24.5212,VALID,357,VALID,0,
2010-03-22, 03:28:04,VALID,1001.69,VALID,0,VALID,95.1932,VALID,0,VALID,24.5212,VALID,357,VALID,0,
2010-03-22, 03:29:04,VALID,1001.7,VALID,0,VALID,95.1779,VALID,0,VALID,24.4998,VALID,357,VALID,0,
2010-03-22, 03:30:04,VALID,1001.72,VALID,0,VALID,95.1855,VALID,0,VALID,24.4998,VALID,357,VALID,0,
2010-03-22, 03:31:04,VALID,1001.71,VALID,0,VALID,95.1779,VALID,0,VALID,24.5017,VALID,357,VALID,0,
2010-03-22, 03:32:04,VALID,1001.72,VALID,0,VALID,95.2008,VALID,0,VALID,24.4998,VALID,357,VALID,0,
2010-03-22, 03:33:04,VALID,1001.73,VALID,0,VALID,95.1932,VALID,0,VALID,24.4804,VALID,357,VALID,0,
2010-03-22, 03:34:04,VALID,1001.71,VALID,0,VALID,95.1855,VALID,0,VALID,24.4609,VALID,357,VALID,0,
2010-03-22, 03:35:04,VALID,1001.74,VALID,0,VALID,95.1932,VALID,0,VALID,24.4822,VALID,357,VALID,0,
2010-03-22, 03:36:04,VALID,1001.73,VALID,0,VALID,95.2084,VALID,0,VALID,24.4628,VALID,357,VALID,0.304297,
2010-03-22, 03:37:04,VALID,1001.76,VALID,0,VALID,95.2084,VALID,0,VALID,24.4433,VALID,357,VALID,0.305859,
2010-03-22, 03:38:04,VALID,1001.76,VALID,0,VALID,95.2008,VALID,0.100563,VALID,24.4025,VALID,357,VALID,0,
2010-03-22, 03:39:04,VALID,1001.79,VALID,0,VALID,95.2161,VALID,0,VALID,24.383,VALID,357,VALID,0,
2010-03-22, 03:40:04,VALID,1001.77,VALID,0,VALID,95.2161,VALID,0,VALID,24.4043,VALID,357,VALID,0,
2010-03-22, 03:41:04,VALID,1001.77,VALID,0,VALID,95.2237,VALID,0,VALID,24.4043,VALID,357,VALID,0,
2010-03-22, 03:42:04,VALID,1001.77,VALID,0,VALID,95.2161,VALID,0,VALID,24.3636,VALID,357,VALID,0,
2010-03-22, 03:43:04,VALID,1001.78,VALID,0,VALID,95.2237,VALID,0,VALID,24.3636,VALID,357,VALID,0,
2010-03-22, 03:44:04,VALID,1001.77,VALID,0,VALID,95.2313,VALID,0,VALID,24.3441,VALID,357,VALID,0,
2010-03-22, 03:45:04,VALID,1001.78,VALID,0,VALID,95.2084,VALID,0,VALID,24.3654,VALID,357,VALID,0,
2010-03-22, 03:46:04,VALID,1001.77,VALID,0,VALID,95.2313,VALID,0,VALID,24.3654,VALID,357,VALID,0,
2010-03-22, 03:47:04,VALID,1001.78,VALID,0,VALID,95.2389,VALID,0,VALID,24.3654,VALID,357,VALID,0,
2010-03-22, 03:48:04,VALID,1001.79,VALID,0,VALID,95.2237,VALID,0,VALID,24.3849,VALID,357,VALID,0,